Flag for Germany Weather past 2 weeks in Nienburg (Weser), Lower Saxony, Germany

37 °F


Feels Like: 31 °F
Forecast: 35 / 42 °F
Wind: 9 mph from West

Location: Wunstorf Airport

Current Time: Nov 26, 2015 at 7:07:50 AM

Latest Report: Nov 26, 2015 at 6:20 AM

Visibility: 3 mi

Pressure: 29.86 "Hg

Humidity: 100%

Dew point: 37 °F

Location of Nienburg (Weser)Location

Historic Weather in Nienburg (Weser) — Graph


Nienburg (Weser) temperature yesterday

Maximum temperature yesterday: 43 °F (at 1:20 PM)
Minimum temperature yesterday: 36 °F (at 12:20 AM)
Average temperature yesterday: 40 °F

Past Weeks' High & Low Weather Summary

High59 °F (Nov 17, 11:20 PM)100% (Nov 15, 3:20 PM)30.27 "Hg (Nov 15, 3:20 PM)
Low32 °F (Nov 22, 4:20 PM)54% (Nov 13, 4:20 PM)29.33 "Hg (Nov 21, 5:20 AM)
Average47 °F83%29.83 "Hg
* Reported Nov 11 5:20 AM — Nov 26 5:20 AM, Nienburg (Weser), Weather by CustomWeather, © 2015

Note: Actual official high and low records may vary slightly from our data, if they occured in-between our weather recording intervals... More about our weather records


Nienburg (Weser) weather history for previous 24 hours

Time TempWeatherWind HumidityBarometerVisibility
5:20 AM
Thu, Nov 26
39 °FFog.9 mph93%29.83 "Hg3 mi
4:20 AM39 °FChilly.7 mph93%29.80 "Hg2 mi
3:20 AM39 °FChilly.9 mph93%29.77 "Hg2 mi
2:20 AM39 °FChilly.9 mph100%29.74 "Hg2 mi
1:20 AM41 °FQuite cool.8 mph93%29.74 "Hg2 mi
12:20 AM41 °FQuite cool.7 mph93%29.71 "Hg2 mi
11:20 PM
Wed, Nov 25
41 °FQuite cool.9 mph93%29.71 "Hg2 mi
10:20 PM41 °FQuite cool.8 mph93%29.71 "Hg2 mi
9:20 PM41 °FQuite cool.7 mph93%29.68 "Hg2 mi
8:20 PM39 °FChilly.7 mph93%29.68 "Hg2 mi
7:20 PM41 °FPassing clouds.7 mph93%29.65 "HgN/A
6:20 PM41 °FPassing clouds.6 mph100%29.65 "HgN/A
5:20 PM43 °FPartly cloudy.5 mph93%29.62 "HgN/A
4:20 PM43 °FLight rain. Passing clouds.7 mph93%29.62 "Hg4 mi
3:20 PM43 °FLight rain. Broken clouds.8 mph93%29.62 "Hg4 mi
2:20 PM43 °FPartly sunny.8 mph93%29.59 "Hg5 mi
1:20 PM43 °FPartly sunny.12 mph87%29.62 "Hg5 mi
12:20 PM41 °FPartly sunny.13 mph93%29.62 "Hg5 mi
11:20 AM41 °FPartly sunny.9 mph93%29.62 "HgN/A
10:20 AM39 °FPartly sunny.8 mph93%29.62 "HgN/A
9:20 AM39 °FDrizzle. Low clouds.9 mph93%29.65 "HgN/A
8:20 AM37 °FLow clouds.7 mph93%29.62 "HgN/A
Weather by CustomWeather, © 2015

See weather overviewHow to use our weather pages